Regional Weather Roundup
Issued by NWS

Home | Current Version | Previous Version | Graphics & Text | Print | Product List | Glossary On
Versions: 1 2 3 4 5 6 7 8 9 10 11 12 13 14 15 16 17 18 19 20 21 22 23 24 25 26 27 28 29 30 31 32 33 34 35 36 37 38 39 40 41 42 43 44 45 46 47 48 49 50
000
ASUS43 KLSX 282107
RWRMO

WEATHER SUMMARY FOR MISSOURI
NATIONAL WEATHER SERVICE SPRINGFIELD MO
400 PM CDT SAT MAR 28 2015

NOTE: "FAIR" INDICATES FEW OR NO CLOUDS BELOW 12,000 FEET WITH NO
       SIGNIFICANT WEATHER AND/OR OBSTRUCTIONS TO VISIBILITY.
       CURRENT SKY AND/OR WEATHER CONDITIONS ARE NOT AVAILABLE FOR
       CHILLICOTHE AND FARMINGTON.

MOZ001>031-035>038-043-044-053-054-282200-
...NORTHERN AND WESTERN MISSOURI...

CITY           SKY/WX    TMP DP  RH WIND       PRES   REMARKS
KANSAS CTY INT MOSUNNY   52  31  44 SE12      30.12F
KANSAS C DTWN  SUNNY     54  30  40 E13G20    30.12F
LEE`S SUMMIT   SUNNY     51  30  44 SE10      30.13F
ST JOSEPH      SUNNY     53  32  44 SE14G21   30.13F
CHILLICOTHE      N/A     49  32  52 E8        30.19F
KIRKSVILLE     SUNNY     46  23  40 SE8G22    30.21F

$$
MOZ066>068-077>081-088>096-101>105-282200-
...SOUTHWEST MISSOURI...

CITY           SKY/WX    TMP DP  RH WIND       PRES   REMARKS
SPRINGFIELD    MOSUNNY   45  31  58 SE14      30.15F
JOPLIN         SUNNY     58  38  47 SE13      30.07F

$$
MOZ032>034-039>042-045>050-055>058-069>072-282200-
...CENTRAL MISSOURI...

CITY           SKY/WX    TMP DP  RH WIND       PRES   REMARKS
COLUMBIA       MOSUNNY   47  28  47 E9        30.20F
JEFFERSON CITY MOSUNNY   46  27  47 SE10      30.21F
ROLLA          MOSUNNY   46  29  51 S7        30.18F
SEDALIA        MOSUNNY   49  29  46 SE10      30.17F
WHITEMAN AFB   SUNNY     51  31  46 SE8       30.15F
WARRENSBURG    SUNNY     52  32  46 E10       30.15F
OSAGE BEACH    CLOUDY    46  30  53 S8        30.19F

$$
MOZ051-052-059>065-282200-
...EAST CENTRAL MISSOURI...

CITY           SKY/WX    TMP DP  RH WIND       PRES   REMARKS
ST LOUIS INTL  SUNNY     45  17  32 SE6       30.27F
SPIRIT OF STL  MOSUNNY   46  17  31 E8        30.25F
ST CHARLES     SUNNY     43  20  39 VRB5      30.27F

$$
MOZ072>076-082>087-097>100-106>115-282200-
...SOUTH CENTRAL AND SOUTHEAST MISSOURI...

CITY           SKY/WX    TMP DP  RH WIND       PRES   REMARKS
CAPE GIRARDEAU SUNNY     47  20  34 N6        30.27F
FARMINGTON     SUNNY     46  19  34 CALM      30.25F
POPLAR BLUFF   CLOUDY    45  27  49 VRB7      30.26F
WEST PLAINS    CLOUDY    37  32  82 E7        30.23F

$$


USA.gov is the U.S. government's official web portal to all federal, state and local government web resources and services.